User: anonymous   Login
Location: Mentone
(34.5413°N, 85.5351°W)
Time: 18:53:02
(UTC-05:00)
Language:

Okean O Rocket - Orbit

View from above orbital plane
View from above orbital plane
View from above satellite
View from above satellite

Ground track
Ground track

The orbit data is extracted from the following two-line orbital elements,

1 25861U 99039B   16119.55563130  .00000103  00000-0  21419-4 0  9993
2 25861  98.0490  83.6166 0015252 342.5346 142.4970 14.78305084904512
Epoch (UTC): 28 April 2016 13:20:06
Eccentricity: 0.0015252
inclination: 98.0490°
perigee height: 624 km
apogee height: 645 km
right ascension of ascending node: 83.6166°
argument of perigee: 342.5346°
revolutions per day: 14.78305084
mean anomaly at epoch: 142.4970°
orbit number at epoch: 90451

The dashed part of the orbit path shows where the satellite is in the earth's shadow,  

DLR